This is the latest recevied weather packets stored in our database for station/object JH5EWP-13. If no packets are shown the sender has not sent any weather packets the latest 10 day(s).
| Time | Temp. | Humidity | Pressure | Rain* | Wind** | Luminosity | Snow |
|---|---|---|---|---|---|---|---|
| 1777903725 | 14.44° C | 53% | 1008.2 hPa | 0 mm | - | - | - |
| 1777902825 | 15° C | 52% | 1008.1 hPa | 0 mm | - | - | - |
| 1777901925 | 14.44° C | 52% | 1008 hPa | 0 mm | - | - | - |
| 1777901025 | 15° C | 52% | 1008 hPa | 0 mm | - | - | - |
| 1777900124 | 15° C | 52% | 1007.9 hPa | 0 mm | - | - | - |
| 1777899224 | 15° C | 51% | 1007.8 hPa | 0 mm | - | - | - |
| 1777898326 | 15.56° C | 50% | 1007.7 hPa | 0 mm | - | - | - |
| 1777897426 | 15.56° C | 46% | 1007.1 hPa | 0 mm | - | - | - |
| 1777896525 | 15.56° C | 45% | 1007 hPa | 0 mm | - | - | - |
| 1777895625 | 16.11° C | 44% | 1006.8 hPa | 0 mm | - | - | - |
| 1777894725 | 16.11° C | 42% | 1006.5 hPa | 0 mm | - | - | - |
| 1777893826 | 16.11° C | 43% | 1006.1 hPa | 0 mm | - | - | - |
| 1777892926 | 16.67° C | 43% | 1005.9 hPa | 0 mm | - | - | - |
| 1777892025 | 16.67° C | 43% | 1005.7 hPa | 0 mm | - | - | - |
| 1777891125 | 16.67° C | 40% | 1005.4 hPa | 0 mm | - | - | - |
| 1777890225 | 16.67° C | 40% | 1005.3 hPa | 0 mm | - | - | - |
| 1777889325 | 17.22° C | 40% | 1005.1 hPa | 0 mm | - | - | - |
| 1777888425 | 17.22° C | 40% | 1005 hPa | 0 mm | - | - | - |
| 1777887525 | 17.78° C | 35% | 1004.9 hPa | 0 mm | - | - | - |
| 1777886625 | 18.33° C | 33% | 1004.6 hPa | 0 mm | - | - | - |
| 1777885725 | 19.44° C | 30% | 1004.6 hPa | 0 mm | - | - | - |
| 1777884825 | 20° C | 31% | 1004.3 hPa | 0 mm | - | - | - |
| 1777883925 | 18.89° C | 32% | 1004 hPa | 0 mm | - | - | - |
| 1777883025 | 19.44° C | 32% | 1003.9 hPa | 0 mm | - | - | - |
| 1777882124 | 19.44° C | 40% | 1003.6 hPa | 0 mm | - | - | - |
* Rain latest hour (hover to see other rain measurements)
** Current wind speed in m/s (hover to see current wind gust speed)